Terminal Aerodrome Forecast
Issued by NWS Pocatello, ID

Home | Current Version | Previous Version | Text Only | Print | Product List | Glossary On
Versions: 1 2 3 4 5 6 7 8 9 10 11 12 13 14 15 16 17 18 19 20
000
FTUS45 KPIH 110500
TAFPIH
TAF
KPIH 110520Z 1106/1206 19007KT P6SM BKN120
     FM111700 26010G20KT P6SM VCTS SCT100CB
     FM120300 19008KT P6SM BKN150=

USA.gov is the U.S. government's official web portal to all federal, state and local government web resources and services.